Theta_e
311 310 309 309 311 312 310 309 310 311 310 309 309 308 310 311 309 310 311 313 315 315 314 317 319 319 314 303 305 318 323 323 321 318 313 311 310 310 307 307 304 304 301 302 302 303 303
309 309 309 309 309 311 309 310 310 310 309 310 311 309 309 310 310 309 310 311 313 315 314 315 318 318 307 297 313 319 318 317 317 315 313 312 310 313 308 306 306 305 304 303 303 302 304
309 309 309 310 310 308 310 309 309 310 310 310 311 310 310 310 310 308 309 310 312 314 314 314 316 313 304 300 314 319 318 315 316 316 312 314 314 310 310 303 304 303 302 301 301 300 301
311 311 312 312 311 311 311 311 311 310 310 310 311 310 310 310 310 309 309 310 311 314 313 313 315 309 298 313 315 316 317 314 315 317 316 316 315 310 306 306 304 300 301 298 296 299 300
313 313 313 313 313 312 312 311 310 311 310 310 311 310 310 310 310 310 309 310 312 313 312 315 305 304 297 316 310 313 315 310 311 313 316 317 311 306 306 301 298 298 294 296 296 298 297
313 312 312 312 312 312 312 312 311 311 310 310 311 310 310 310 310 310 309 310 311 310 309 309 307 298 302 300 309 312 314 314 308 308 309 308 305 302 302 300 293 294 295 295 297 295 297
312 313 313 313 313 313 312 312 312 311 310 309 310 310 310 310 310 309 306 301 294 292 298 291 295 297 300 304 310 308 312 309 308 305 300 305 298 296 299 302 300 298 298 295 293 298 296
312 312 312 313 313 312 312 312 311 311 309 310 309 310 310 310 309 309 303 294 294 293 288 296 300 301 303 305 297 304 312 302 299 295 300 299 294 300 303 302 300 299 295 296 296 299 296
311 313 313 313 312 312 312 311 311 310 309 310 310 310 310 309 309 305 300 298 304 300 288 292 298 298 300 301 296 296 306 304 297 293 296 294 297 303 301 299 298 298 295 294 293 297 297
312 312 312 311 311 311 311 311 311 310 310 310 309 310 310 309 303 301 298 303 304 300 276 282 291 295 300 301 293 300 307 303 298 293 295 295 300 299 298 297 298 293 299 298 295 294 290
312 311 311 311 311 311 312 311 310 310 310 310 310 310 310 309 296 297 300 304 303 294 264 284 290 302 301 294 296 299 304 302 296 295 295 291 295 297 295 296 300 296 300 298 296 293 292
311 311 311 311 311 311 311 311 310 310 309 310 310 310 309 302 300 303 303 301 297 277 266 284 292 291 291 294 295 298 300 303 299 296 295 292 295 298 297 300 301 298 296 293 291 291 285
311 311 311 311 311 311 310 309 309 309 309 310 310 308 303 302 297 303 302 297 281 269 280 283 286 289 289 289 291 294 293 292 290 285 287 291 292 294 299 295 297 296 293 283 282 282 283
311 310 310 310 309 309 309 309 309 309 310 308 306 302 300 299 301 303 297 286 274 270 277 286 286 288 285 289 289 291 290 288 289 290 288 285 283 291 297 295 293 294 292 284 278 278 280
310 309 309 309 310 310 309 310 310 310 308 307 303 294 294 295 303 301 289 278 277 275 282 279 284 282 283 288 288 289 286 287 289 290 287 284 285 293 294 296 297 290 288 289 280 275 278
309 309 310 310 310 310 310 309 309 309 307 304 292 290 290 297 301 293 283 279 278 287 285 285 279 282 280 283 285 286 286 289 289 292 291 288 284 289 292 296 296 292 292 284 283 276 275
309 309 310 309 309 310 309 309 309 308 306 302 289 284 291 295 293 284 273 277 283 289 289 284 280 281 280 282 282 281 284 287 292 291 293 289 286 285 290 288 288 288 287 286 285 283 277
309 309 309 309 309 310 310 309 308 307 303 294 284 277 291 290 278 272 270 281 287 287 290 287 287 285 283 283 284 284 283 286 291 293 289 290 286 281 284 290 292 290 289 286 282 278 279
309 309 309 309 309 310 309 308 306 306 303 288 279 278 288 288 270 277 280 283 284 284 284 285 284 287 286 284 280 282 284 289 292 292 287 290 284 277 282 287 288 287 287 287 284 283 279
309 309 309 308 307 307 307 306 305 305 302 288 280 275 279 281 278 278 272 273 278 286 283 285 284 287 285 283 284 282 284 288 292 293 295 291 280 279 277 279 283 283 285 285 285 280 280
308 308 308 307 307 306 306 306 305 305 300 287 277 271 272 272 273 275 278 278 277 276 281 284 283 281 281 280 281 280 285 286 289 291 292 287 274 279 280 283 284 285 285 286 286 284 282
308 307 306 305 305 305 306 305 304 304 299 284 278 276 275 275 278 278 274 273 277 276 279 281 280 281 281 279 281 280 283 285 286 288 288 289 281 279 277 283 285 283 285 287 286 286 285
306 306 305 305 304 303 304 304 303 303 296 284 281 282 280 277 272 272 274 275 279 280 281 282 281 281 280 281 284 287 288 286 287 286 285 285 279 279 274 280 281 277 281 285 285 287 287
306 306 305 305 304 303 303 302 303 302 295 287 284 282 277 269 275 275 279 280 280 280 280 281 282 281 283 286 286 284 283 283 284 284 288 282 278 278 272 276 270 280 279 282 285 286 286
306 306 305 305 304 304 303 302 304 302 298 287 284 281 276 267 275 279 279 279 278 279 279 281 282 284 284 281 276 270 272 274 277 280 282 285 281 274 276 273 275 277 281 282 283 282 283
306 305 304 304 304 303 304 302 301 301 298 287 284 283 281 276 273 281 277 279 271 270 272 279 282 284 282 278 267 261 262 263 267 275 281 282 281 278 269 270 268 277 279 283 284 278 283
305 305 304 303 303 303 303 303 301 301 299 289 284 284 282 275 277 277 273 276 277 273 271 276 278 279 281 270 263 262 263 266 265 266 272 269 271 270 264 266 273 278 279 281 276 280 283
305 304 303 303 303 303 302 302 302 300 298 289 284 285 282 277 280 282 280 276 275 274 270 273 273 274 268 264 262 262 260 267 265 269 271 270 271 267 261 262 268 277 279 278 281 281 281
305 304 303 303 302 303 302 302 302 302 299 292 284 287 286 280 281 286 286 286 284 279 276 278 274 269 276 271 268 266 265 264 262 263 275 268 273 270 272 274 279 280 281 282 282 281 281
Wind_Speed
11 12 14 14 14 11 11 14 12 13 13 11 10 9 7 5 3 6 6 7 7 7 8 10 8 5 2 1 4 4 5 5 5 1 3 4 5 5 6 4 5 5 6 2 2 6 4
12 14 14 14 15 11 11 12 10 12 11 11 10 7 8 6 5 4 6 7 7 8 7 8 9 4 2 3 3 3 5 3 3 1 2 3 4 3 3 4 5 9 6 3 3 3 4
12 13 13 13 13 14 15 15 12 12 11 12 9 7 7 7 6 4 5 7 7 7 5 8 9 1 1 8 2 2 3 1 3 0 2 1 2 2 5 5 2 5 4 1 2 1 2
16 18 19 17 16 16 17 15 14 13 13 11 9 7 7 7 6 5 4 8 7 8 4 6 8 1 5 3 0 2 2 3 4 3 3 1 1 5 2 2 4 5 3 5 2 2 1
19 21 20 20 20 20 18 16 14 14 12 9 7 7 8 8 5 5 3 6 9 5 5 5 1 3 4 1 1 2 3 2 2 3 2 0 3 3 1 5 3 1 5 7 3 3 1
17 19 20 20 19 17 16 18 15 15 12 9 8 7 7 7 5 4 2 6 4 3 3 2 2 1 2 1 1 2 1 1 2 1 2 3 2 3 2 5 8 5 6 4 11 2 0
19 21 21 21 20 19 17 14 17 16 13 9 7 7 7 8 6 3 2 3 4 3 1 6 2 3 1 2 0 3 3 2 2 2 4 2 3 5 5 7 3 3 4 4 2 2 4
19 21 21 20 17 17 15 14 11 15 13 9 7 7 8 7 6 4 4 1 3 1 3 2 3 2 0 2 1 3 4 5 4 6 3 2 11 5 4 4 4 2 6 6 2 3 4
18 19 18 15 12 9 10 11 11 16 13 8 7 6 8 7 5 2 4 5 1 2 2 2 3 2 2 4 2 4 7 5 5 8 7 3 1 8 5 5 5 4 5 5 3 4 3
15 13 8 1 3 7 10 11 15 13 11 8 6 9 8 5 4 4 4 3 1 1 5 5 5 5 3 3 4 3 8 5 3 10 8 6 4 7 5 6 6 8 6 2 8 8 5
11 9 8 7 9 10 11 13 13 13 9 7 5 7 8 9 5 4 1 3 3 4 4 2 2 3 4 5 2 1 2 1 4 6 6 5 9 8 6 6 9 1 0 7 3 4 3
9 8 9 10 13 13 17 16 14 12 9 6 6 9 11 3 2 0 3 2 3 6 7 3 3 5 5 5 2 2 4 2 2 5 3 1 2 1 2 3 11 8 5 7 5 3 4
10 9 12 15 17 16 16 13 12 10 8 7 11 11 5 2 3 2 2 4 2 4 4 2 2 7 9 5 3 4 6 9 4 4 9 1 2 2 3 6 8 6 8 1 1 3 3
13 14 15 15 16 14 14 12 10 10 12 13 12 10 6 3 1 2 5 2 4 3 4 1 2 1 9 5 3 2 2 10 0 2 4 5 4 5 1 1 5 6 7 4 7 5 2
12 12 13 12 13 13 14 13 12 13 12 11 8 3 3 5 1 3 4 2 2 5 3 1 2 6 5 4 4 4 5 5 5 4 4 7 3 2 1 3 6 4 4 2 5 2 2
11 11 11 10 11 12 14 14 12 10 5 5 3 3 2 7 1 3 3 1 3 1 1 3 2 1 11 9 8 8 6 2 6 4 2 4 4 3 3 1 5 1 12 4 1 6 3
9 10 10 9 9 13 13 13 8 8 7 5 5 4 3 4 2 5 3 3 2 1 3 2 2 2 2 5 7 7 5 2 2 9 3 4 1 1 1 1 5 3 4 3 3 1 4
9 9 9 8 8 10 12 12 5 2 9 9 3 3 2 2 5 2 2 1 3 3 2 2 2 2 1 1 4 6 8 3 1 4 5 2 3 3 1 2 4 2 4 3 4 4 3
10 10 11 11 8 8 9 7 4 3 6 5 3 2 3 4 3 1 1 1 1 3 3 3 1 2 0 1 2 3 5 2 5 1 7 7 1 4 2 2 2 3 5 5 2 2 3
11 11 12 11 8 6 6 6 6 7 7 6 4 3 5 5 2 5 3 3 2 1 1 2 4 3 1 1 4 4 5 1 3 1 4 4 3 4 6 2 3 3 5 6 4 4 3
11 10 9 8 5 4 4 5 6 8 6 6 4 2 3 1 4 2 1 2 2 4 4 4 3 5 3 1 2 2 3 3 4 3 4 3 4 3 2 1 2 1 1 6 2 3 5
9 8 7 5 4 5 7 6 8 9 8 6 5 5 2 2 2 2 4 2 2 2 4 4 4 9 7 4 3 1 1 2 3 1 2 1 3 2 3 3 5 4 12 9 3 7 4
10 9 8 6 4 2 6 8 10 11 7 4 1 2 5 3 2 3 3 4 2 3 2 4 2 3 10 5 3 6 6 5 4 4 4 3 5 2 3 2 1 4 8 13 7 10 12
12 11 9 7 6 3 2 6 10 10 6 4 3 4 5 2 3 2 1 2 2 1 4 2 3 2 0 4 2 1 8 11 12 10 4 4 4 2 2 1 1 2 3 4 10 8 6
14 12 10 9 7 7 2 3 8 10 8 5 3 4 4 2 1 2 2 4 2 4 4 2 3 2 2 2 3 5 5 6 8 8 8 4 4 3 4 2 5 3 4 6 7 6 5
15 13 11 9 9 8 7 3 6 12 13 6 2 2 4 8 5 3 3 2 4 1 5 3 2 3 4 4 5 4 1 4 3 5 4 5 5 3 2 4 7 3 1 4 2 5 8
16 15 12 10 10 8 8 4 1 8 12 7 2 1 5 6 2 2 3 4 4 3 2 3 4 4 4 3 4 3 1 2 1 4 2 3 4 4 2 3 8 4 1 3 6 6 6
18 16 13 11 10 10 8 7 3 4 9 7 1 3 4 4 2 2 2 3 2 2 5 5 5 4 4 5 4 3 3 3 2 3 4 5 5 3 3 2 7 0 1 6 2 4 6
19 17 15 12 11 11 9 8 7 2 6 5 4 2 3 7 3 3 3 1 0 4 5 1 4 3 4 5 2 3 1 2 2 3 2 2 5 4 8 6 2 3 3 2 3 3 3
Wind_Direction
291 285 282 293 289 267 264 276 280 258 251 261 266 274 270 292 271 311 319 327 334 325 328 336 343 342 347 42 267 26 2 351 347 99 221 175 153 165 171 182 135 180 187 204 268 316 274
299 296 294 274 275 275 278 268 273 269 269 273 263 255 259 254 244 287 307 318 326 326 325 332 344 341 326 247 356 37 25 10 17 74 156 167 207 196 139 172 194 178 172 192 328 324 302
288 279 274 265 269 264 262 256 256 262 254 269 256 254 258 253 255 226 302 305 317 323 326 320 332 277 27 238 12 37 22 30 343 248 161 214 168 192 168 154 183 121 151 234 169 91 306
274 273 272 268 251 253 252 255 250 240 250 259 247 244 269 255 258 215 280 302 313 315 318 303 316 228 242 349 314 356 357 39 22 29 90 159 180 102 56 215 51 126 121 197 152 15 274
286 284 280 273 269 258 250 240 236 240 238 243 236 241 263 250 229 222 273 303 309 295 290 309 54 191 240 102 150 208 6 89 57 17 66 228 66 105 74 107 66 308 197 216 187 96 197
294 293 285 279 274 264 251 244 232 228 228 227 242 240 252 231 209 196 266 295 315 324 326 63 75 67 294 207 173 182 36 259 76 96 82 58 74 135 148 168 205 182 208 186 203 214 122
297 292 286 280 272 262 246 236 232 219 213 216 223 232 237 214 206 211 43 46 39 1 308 187 159 247 210 298 281 219 159 165 108 1 194 184 174 202 186 200 114 176 190 176 67 139 148
309 297 287 279 273 257 236 225 213 202 198 201 217 230 218 199 202 194 97 156 223 260 261 208 291 229 331 133 48 277 144 177 163 210 146 145 229 192 155 184 192 181 210 203 81 341 138
311 310 300 281 264 249 203 194 191 183 183 189 213 212 188 182 191 174 202 229 336 349 95 237 203 210 170 138 246 250 175 188 180 182 197 223 286 155 148 150 191 220 220 201 174 141 9
339 335 337 349 187 165 167 166 166 159 159 174 179 182 181 171 140 171 216 308 148 125 64 264 194 232 132 118 263 222 205 176 232 192 155 243 194 176 176 193 158 239 183 128 129 161 204
5 23 57 96 119 127 136 138 136 135 147 164 179 180 187 144 144 163 333 300 119 55 42 271 155 318 149 156 354 195 10 150 187 193 168 194 172 181 193 207 181 192 352 145 154 142 116
41 53 80 102 110 124 126 132 135 137 140 147 149 143 120 79 59 208 270 294 62 54 259 180 135 184 164 163 257 140 165 62 75 186 23 116 306 287 173 151 181 142 87 46 45 76 223
74 83 93 105 109 116 119 128 130 125 128 122 100 84 64 60 129 306 70 44 132 160 273 219 216 197 198 157 200 195 170 186 183 161 179 78 277 269 247 103 147 148 121 96 176 189 236
92 99 103 108 112 117 116 119 123 118 118 114 103 80 56 58 285 85 42 99 220 201 230 321 291 253 200 142 215 128 286 177 334 95 120 170 205 180 89 186 157 165 155 187 181 195 158
102 107 109 115 117 118 114 112 114 113 115 116 92 32 48 341 335 89 89 151 159 213 202 267 180 194 198 179 155 209 213 165 144 177 166 178 229 330 24 340 138 148 147 28 104 43 97
114 115 116 120 121 122 118 113 109 106 108 115 82 70 23 322 40 78 80 150 207 166 217 217 224 245 188 189 164 188 168 175 134 131 253 204 144 20 350 220 50 255 143 124 23 150 207
130 129 128 129 137 134 130 130 132 91 102 105 53 64 266 353 57 49 150 238 302 271 187 273 259 268 210 175 170 149 194 286 166 161 218 162 325 113 242 348 147 136 135 82 107 158 145
151 148 145 145 155 145 140 142 148 92 117 60 95 53 315 57 50 51 121 205 321 343 20 321 267 259 275 294 159 169 168 153 82 154 161 109 138 106 77 261 276 198 169 145 131 208 250
155 148 146 142 151 138 129 119 95 86 125 119 99 209 337 85 123 355 283 272 273 10 352 330 323 309 259 69 132 134 158 130 139 192 160 186 89 74 39 325 48 229 172 181 107 64 198
153 151 146 138 142 141 139 128 96 111 128 86 91 45 337 54 122 135 147 285 330 113 139 79 350 314 170 90 25 138 159 141 78 9 57 90 104 161 177 154 116 194 203 173 149 131 182
169 158 150 146 168 192 193 175 121 123 138 91 35 250 200 287 336 89 61 161 15 3 355 15 30 354 276 85 57 67 118 114 53 333 32 69 116 92 49 285 16 35 234 160 143 58 135
172 165 163 169 186 223 217 196 154 141 124 77 129 136 345 114 327 319 353 301 128 296 15 23 66 17 46 75 344 217 127 125 152 113 83 6 112 96 9 35 163 234 180 208 126 131 315
168 166 163 156 157 220 243 208 174 162 101 106 246 39 103 336 20 69 250 205 164 139 110 65 13 47 47 31 353 39 70 69 84 140 138 126 130 92 232 340 165 309 207 192 181 177 161
162 156 149 139 131 125 276 204 173 166 126 123 184 114 87 251 111 213 200 53 72 324 152 27 22 121 338 313 221 101 52 53 49 32 31 125 94 60 184 1 306 252 299 221 174 177 168
159 154 144 131 113 105 85 208 166 147 128 96 154 117 118 101 156 23 110 112 59 6 52 34 349 260 306 11 64 33 344 31 15 25 13 34 108 88 148 218 301 328 192 157 171 231 199
161 153 144 131 111 96 82 130 159 140 122 89 59 121 107 118 253 151 131 165 156 108 358 327 300 320 38 54 53 101 127 247 329 354 7 28 50 116 117 135 210 252 331 12 359 256 178
165 155 148 134 115 97 84 73 226 147 129 110 79 287 93 105 302 90 160 180 128 105 118 299 313 356 26 63 69 113 242 204 118 140 178 14 13 130 168 198 287 268 338 334 116 245 163
168 158 151 140 123 107 89 69 76 119 118 93 133 325 113 104 96 28 3 119 56 92 146 245 44 331 29 66 114 202 116 221 32 227 176 173 141 189 72 65 281 197 68 165 245 354 112
170 161 154 147 132 118 102 80 53 56 99 99 95 335 23 76 122 80 75 73 276 198 134 145 184 177 182 99 75 99 125 73 163 260 191 288 182 183 183 219 266 273 242 282 174 133 114